{"data":{"norad_id":65961,"epoch":"2026-05-25T01:10:01.828992Z","epoch_age_seconds":71683,"freshness":"FRESH","line1":"1 65961U 25228Q   26145.04863228  .00003318  00000+0  46400-3 0  9998","line2":"2 65961  51.9030  13.0272 0000870 105.2066 254.8993 14.79940134 34679","mean_motion":14.79940134,"eccentricity":8.7e-5,"inclination_deg":51.903,"raan_deg":13.0272,"arg_perigee_deg":105.2066,"mean_anomaly_deg":254.8993,"bstar":0.000464,"rev_number":3467,"period_min":97.301233132178,"perigee_km":628.90344343579,"apogee_km":630.12277455475,"semimajor_km":7007.6501089953,"source":"CELESTRAK","updated_at":"2026-05-25T13:38:05.848663Z"}}